Change the Weather History Date:

Tuesday, November 13, 2012

  Actual Average Record
Temperature  
Mean Temperature 44 °F -  
Max Temperature 48 °F 45 °F 57 °F (2010)
Min Temperature 39 °F 38 °F 28 °F (1999)
Degree Days  
Heating Degree Days 22    
Moisture  
Dew Point 37 °F    
Average Humidity 74    
Maximum Humidity 81    
Minimum Humidity 66    
Precipitation  
Precipitation 0.00 in - - ()
Sea Level Pressure  
Sea Level Pressure 30.43 in    
Wind  
Wind Speed 9 mph ()    
Max Wind Speed 15 mph    
Max Gust Speed -    
Visibility 6.2 miles    
Events      
Averages and records for this station are not official NWS values.
T = Trace of Precipitation, MM = Missing Value Source: Averaged Metar Reports

Daily Weather History Graph

Daily Weather History Graph

Search for Another Location

Airport or City:

Trip Planner

Search our weather history database for the weather conditions in past years. The results will help you decide how hot, cold, wet, or windy it might be!

Date:

Astronomy

Nov. 13, 2012 Rise Set
Actual Time 7:44 AM CET 4:42 PM CET
Civil Twilight 7:07 AM CET 5:19 PM CET
Nautical Twilight 6:27 AM CET 5:59 PM CET
Astronomical Twilight 5:48 AM CET 6:38 PM CET
Moon 7:02 AM CET (11/13) 4:19 PM CET (11/13)
Length of Visible Light 10h 11m
Length of Day
8h 57m
Waning Crescent, 0% of the Moon is Illuminated
Nov 13
Waning Crescent
Nov 13
New
Nov 20
First Quarter
Nov 28
Full
Dec 6
Last Quarter

Hourly Weather History & Observations

Time (CET) Temp. Windchill Dew Point Humidity Pressure Visibility Wind Dir Wind Speed Gust Speed Precip Events Conditions
5:20 AM 41.0 °F 33.1 °F 33.8 °F 76% 30.36 in - South 15.0 mph - N/A   Clear
5:50 AM 39.2 °F 31.6 °F 33.8 °F 81% 30.36 in - South 12.7 mph - N/A   Clear
6:20 AM 39.2 °F 30.8 °F 33.8 °F 81% 30.36 in - South 15.0 mph - N/A   Clear
6:50 AM 41.0 °F 33.5 °F 33.8 °F 76% 30.39 in 6.2 mi South 13.8 mph - N/A   Mostly Cloudy
7:20 AM 41.0 °F 34.3 °F 33.8 °F 76% 30.39 in 6.2 mi South 11.5 mph - N/A   Mostly Cloudy
7:50 AM 41.0 °F 33.9 °F 33.8 °F 76% 30.39 in 6.2 mi South 12.7 mph - N/A   Mostly Cloudy
8:20 AM 41.0 °F 34.3 °F 33.8 °F 76% 30.42 in - South 11.5 mph - N/A   Clear
8:50 AM 41.0 °F 34.7 °F 33.8 °F 76% 30.42 in - South 10.4 mph - N/A   Clear
9:20 AM 41.0 °F 33.9 °F 33.8 °F 76% 30.42 in 6.2 mi South 12.7 mph - N/A   Mostly Cloudy
9:50 AM 42.8 °F 36.6 °F 35.6 °F 76% 30.45 in 6.2 mi South 11.5 mph - N/A   Mostly Cloudy
10:20 AM 42.8 °F 36.6 °F 35.6 °F 76% 30.42 in 6.2 mi South 11.5 mph - N/A   Mostly Cloudy
10:50 AM 44.6 °F 39.2 °F 33.8 °F 66% 30.45 in 6.2 mi South 10.4 mph - N/A   Mostly Cloudy
11:20 AM 44.6 °F 39.2 °F 35.6 °F 71% 30.45 in 6.2 mi South 10.4 mph - N/A   Mostly Cloudy
11:50 AM 44.6 °F 38.8 °F 35.6 °F 71% 30.45 in 6.2 mi South 11.5 mph - N/A   Mostly Cloudy
12:20 PM 46.4 °F 41.9 °F 37.4 °F 71% 30.45 in 6.2 mi South 9.2 mph - N/A   Mostly Cloudy
12:50 PM 46.4 °F 41.9 °F 37.4 °F 71% 30.45 in 6.2 mi South 9.2 mph - N/A   Mostly Cloudy
1:20 PM 46.4 °F 41.9 °F 37.4 °F 71% 30.45 in 6.2 mi South 9.2 mph - N/A   Mostly Cloudy
1:50 PM 46.4 °F 41.9 °F 39.2 °F 76% 30.45 in 6.2 mi South 9.2 mph - N/A   Mostly Cloudy
2:20 PM 46.4 °F 42.4 °F 39.2 °F 76% 30.42 in 6.2 mi SSW 8.1 mph - N/A   Mostly Cloudy
2:50 PM 46.4 °F 41.9 °F 39.2 °F 76% 30.42 in 6.2 mi SSW 9.2 mph - N/A   Mostly Cloudy
3:20 PM 48.2 °F - 39.2 °F 71% 30.42 in 6.2 mi SSW 8.1 mph - N/A   Mostly Cloudy
3:50 PM 48.2 °F - 39.2 °F 71% 30.42 in 6.2 mi SSW 6.9 mph - N/A   Mostly Cloudy
4:20 PM 46.4 °F 42.9 °F 39.2 °F 76% 30.42 in 6.2 mi SW 6.9 mph - N/A   Mostly Cloudy
4:50 PM 46.4 °F 43.5 °F 39.2 °F 76% 30.42 in 6.2 mi SSW 5.8 mph - N/A   Mostly Cloudy
5:20 PM 46.4 °F 44.3 °F 39.2 °F 76% 30.45 in 6.2 mi SW 4.6 mph - N/A   Mostly Cloudy
5:50 PM 46.4 °F 43.5 °F 39.2 °F 76% 30.45 in 6.2 mi South 5.8 mph - N/A   Mostly Cloudy
6:20 PM 46.4 °F 44.3 °F 37.4 °F 71% 30.45 in 6.2 mi South 4.6 mph - N/A   Mostly Cloudy
6:50 PM 46.4 °F 45.2 °F 37.4 °F 71% 30.45 in 6.2 mi SSW 3.5 mph - N/A   Mostly Cloudy
7:20 PM 46.4 °F 44.3 °F 37.4 °F 71% 30.45 in 6.2 mi South 4.6 mph - N/A   Mostly Cloudy
7:50 PM 46.4 °F 45.2 °F 37.4 °F 71% 30.45 in 6.2 mi Variable 3.5 mph - N/A   Mostly Cloudy
8:20 PM 46.4 °F - 39.2 °F 76% 30.45 in 6.2 mi Variable 2.3 mph - N/A   Mostly Cloudy
8:50 PM 46.4 °F - 39.2 °F 76% 30.45 in 6.2 mi Variable 2.3 mph - N/A   Mostly Cloudy
9:20 PM 46.4 °F - 37.4 °F 71% 30.45 in 6.2 mi Calm Calm - N/A   Mostly Cloudy
9:50 PM 46.4 °F - 39.2 °F 76% 30.45 in 6.2 mi Variable 1.2 mph - N/A   Mostly Cloudy